sat.trackr.live / text

‹ back to catalog

ZHONGXING-6C

NORAD 44067 · 2019-012A

PAYLOAD ACTIVE UNKNOWN

§ Identity

Operator
Country
PRC
Launch date
2019-03-09
Launch site
XICLF
Launch vehicle
Mass (kg)
RCS (m²)

Purposes: comms

External: N2YO · Heavens-Above · Gunter

§ Orbital elements

Epoch: 2026-09-10T06:04:18.128640Z

Period
1,436.12 min
Inclination
0.0444°
Eccentricity
0.0013801
Mean motion
1.00270354 rev/d
Perigee alt
35,728.8 km
Apogee alt
35,845.2 km
Semi-major
42,165.1 km
B*
0.0000e+0
RAAN
38.1309°
Arg perigee
24.9349°
Mean anomaly
147.7624°
Rev number
2,759

§ Raw data

ZHONGXING-6C1 44067U 19012A   26253.25298760 -.00000355  00000+0  00000+0 0  99932 44067   0.0444  38.1309 0013801  24.9349 147.7624  1.00270354 27599

JSON: /api/v1/satellites/44067 · /tle

For live sub-satellite position, see the globe view (requires WebGL).

§ Visibility from observer

Set your observer location to see the next 7 days of passes ≥ 10°. The values pass through the URL so the page stays shareable.

No JS? Fill the form by hand. The geolocation button needs JavaScript.